• In Deutschland
  • Länderverzeichnis
  • Für 7 Tage
  • Wassertemperatur
  • Satellitenkarten
  • Wetterkarte
  • Widgets
  • user-avatar
    Anmelden

    Stündliche Wetter Werdohl

    Heute, 22 Oktober, Sonntag

    Zeit Temperatur Niederschläge Wind Luftdruck Luftfeuchtigkeit
    00:00 +8°C° 0 mm 4 m/S 728 mmHg 83%
    01:00 +8°C° 0 mm 4 m/S 728 mmHg 82%
    02:00 +7°C° 0 mm 4 m/S 728 mmHg 82%
    03:00 +7°C° 0 mm 4 m/S 728 mmHg 82%
    04:00 +6°C° 0 mm 4 m/S 727 mmHg 83%
    05:00 +6°C° 0,3 mm 5 m/S 727 mmHg 83%
    06:00 +6°C° 0,3 mm 5 m/S 727 mmHg 84%
    07:00 +6°C° 0,3 mm 5 m/S 727 mmHg 84%
    08:00 +6°C° 0,7 mm 5 m/S 727 mmHg 85%
    09:00 +6°C° 0,7 mm 5 m/S 727 mmHg 85%
    10:00 +7°C° 0,7 mm 6 m/S 727 mmHg 85%
    11:00 +8°C° 0,1 mm 5 m/S 727 mmHg 82%
    12:00 +8°C° 0,1 mm 5 m/S 728 mmHg 79%
    13:00 +9°C° 0,1 mm 5 m/S 728 mmHg 75%
    14:00 +9°C° 0,1 mm 5 m/S 728 mmHg 74%
    15:00 +9°C° 0,1 mm 5 m/S 728 mmHg 74%
    16:00 +10°C° 0,1 mm 4 m/S 728 mmHg 73%
    17:00 +8°C° 0 mm 4 m/S 728 mmHg 76%
    18:00 +7°C° 0 mm 4 m/S 729 mmHg 78%
    19:00 +7°C° 0 mm 4 m/S 729 mmHg 81%
    20:00 +6°C° 0,1 mm 4 m/S 729 mmHg 82%
    21:00 +6°C° 0,1 mm 4 m/S 729 mmHg 83%
    22:00 +6°C° 0,1 mm 4 m/S 730 mmHg 85%
    23:00 +6°C° 0,6 mm 4 m/S 730 mmHg 86%

    Morgen, 23 Oktober, Montag

    Zeit Temperatur Niederschläge Wind Luftdruck Luftfeuchtigkeit
    00:00 +6°C° 0,6 mm 4 m/S 730 mmHg 87%
    01:00 +6°C° 0,6 mm 5 m/S 730 mmHg 87%
    02:00 +6°C° 0,1 mm 4 m/S 730 mmHg 88%
    03:00 +6°C° 0,1 mm 4 m/S 731 mmHg 88%
    04:00 +6°C° 0,1 mm 4 m/S 731 mmHg 88%
    05:00 +6°C° 0 mm 4 m/S 731 mmHg 88%
    06:00 +6°C° 0 mm 4 m/S 731 mmHg 89%
    07:00 +6°C° 0 mm 4 m/S 731 mmHg 90%
    08:00 +7°C° 0,1 mm 4 m/S 732 mmHg 89%
    09:00 +7°C° 0,1 mm 4 m/S 732 mmHg 88%
    10:00 +8°C° 0,1 mm 4 m/S 733 mmHg 86%
    11:00 +8°C° 0,1 mm 4 m/S 733 mmHg 85%
    12:00 +8°C° 0,1 mm 4 m/S 733 mmHg 84%
    13:00 +10°C° 0,1 mm 4 m/S 733 mmHg 83%
    14:00 +10°C° 0,1 mm 4 m/S 733 mmHg 84%
    15:00 +10°C° 0,1 mm 3 m/S 733 mmHg 86%
    16:00 +10°C° 0,1 mm 3 m/S 733 mmHg 87%
    17:00 +9°C° 0,2 mm 3 m/S 733 mmHg 89%
    18:00 +9°C° 0,2 mm 3 m/S 733 mmHg 91%
    19:00 +9°C° 0,2 mm 2 m/S 734 mmHg 92%
    20:00 +9°C° 0,3 mm 2 m/S 734 mmHg 93%
    21:00 +9°C° 0,3 mm 2 m/S 734 mmHg 93%
    22:00 +9°C° 0,3 mm 2 m/S 734 mmHg 93%
    23:00 +9°C° 0,2 mm 2 m/S 734 mmHg 94%

    übermorgen, 24 Oktober, Dienstag

    Zeit Temperatur Niederschläge Wind Luftdruck Luftfeuchtigkeit
    00:00 +9°C° 0,2 mm 2 m/S 734 mmHg 94%
    01:00 +9°C° 0,2 mm 2 m/S 734 mmHg 95%
    02:00 +10°C° 0,1 mm 2 m/S 734 mmHg 95%
    03:00 +10°C° 0,1 mm 2 m/S 734 mmHg 95%
    04:00 +10°C° 0,1 mm 2 m/S 734 mmHg 96%
    05:00 +10°C° 0 mm 2 m/S 734 mmHg 96%
    06:00 +11°C° 0 mm 1 m/S 734 mmHg 96%
    07:00 +11°C° 0 mm 1 m/S 734 mmHg 96%
    08:00 +12°C° 0 mm 1 m/S 735 mmHg 95%
    09:00 +12°C° 0 mm 2 m/S 735 mmHg 93%
    10:00 +13°C° 0 mm 2 m/S 735 mmHg 92%
    11:00 +14°C° 0 mm 2 m/S 735 mmHg 89%
    12:00 +15°C° 0 mm 2 m/S 736 mmHg 86%
    13:00 +16°C° 0 mm 2 m/S 736 mmHg 83%
    14:00 +16°C° 0 mm 2 m/S 736 mmHg 83%
    15:00 +16°C° 0 mm 2 m/S 736 mmHg 84%
    16:00 +16°C° 0 mm 2 m/S 736 mmHg 84%
    17:00 +15°C° 0,1 mm 2 m/S 736 mmHg 87%
    18:00 +15°C° 0,1 mm 2 m/S 736 mmHg 90%
    19:00 +13°C° 0,1 mm 3 m/S 736 mmHg 93%
    20:00 +14°C° 0 mm 2 m/S 736 mmHg 94%
    21:00 +14°C° 0 mm 2 m/S 736 mmHg 94%
    22:00 +14°C° 0 mm 2 m/S 737 mmHg 95%
    23:00 +14°C° 0 mm 2 m/S 737 mmHg 95%

    25 Oktober, Mittwoch

    Zeit Temperatur Niederschläge Wind Luftdruck Luftfeuchtigkeit
    00:00 +14°C° 0 mm 2 m/S 737 mmHg 95%
    01:00 +14°C° 0 mm 2 m/S 737 mmHg 95%
    02:00 +13°C° 0 mm 2 m/S 737 mmHg 95%
    03:00 +13°C° 0 mm 2 m/S 737 mmHg 96%
    04:00 +13°C° 0 mm 2 m/S 736 mmHg 96%
    05:00 +13°C° 0 mm 2 m/S 736 mmHg 96%
    06:00 +13°C° 0 mm 2 m/S 736 mmHg 96%
    07:00 +12°C° 0 mm 2 m/S 737 mmHg 96%
    08:00 +13°C° 0 mm 2 m/S 737 mmHg 93%
    09:00 +13°C° 0 mm 3 m/S 737 mmHg 90%
    10:00 +14°C° 0 mm 3 m/S 737 mmHg 87%
    11:00 +16°C° 0 mm 3 m/S 737 mmHg 85%
    12:00 +16°C° 0 mm 3 m/S 737 mmHg 82%
    13:00 +17°C° 0 mm 3 m/S 737 mmHg 80%
    14:00 +17°C° 0 mm 3 m/S 737 mmHg 80%
    15:00 +17°C° 0 mm 3 m/S 737 mmHg 81%
    16:00 +17°C° 0 mm 2 m/S 737 mmHg 81%
    17:00 +16°C° 0 mm 2 m/S 737 mmHg 85%
    18:00 +15°C° 0 mm 2 m/S 737 mmHg 89%
    19:00 +14°C° 0 mm 2 m/S 737 mmHg 92%
    20:00 +14°C° 0 mm 2 m/S 737 mmHg 93%
    21:00 +13°C° 0 mm 2 m/S 737 mmHg 94%
    22:00 +13°C° 0 mm 1 m/S 737 mmHg 95%
    23:00 +12°C° 0 mm 1 m/S 737 mmHg 95%

    26 Oktober, Donnerstag

    Zeit Temperatur Niederschläge Wind Luftdruck Luftfeuchtigkeit
    00:00 +12°C° 0 mm 1 m/S 738 mmHg 96%
    01:00 +12°C° 0 mm 1 m/S 738 mmHg 96%
    02:00 +11°C° 0 mm 1 m/S 737 mmHg 96%
    03:00 +11°C° 0 mm 1 m/S 737 mmHg 96%
    04:00 +11°C° 0 mm 1 m/S 737 mmHg 96%
    05:00 +11°C° 0 mm 1 m/S 737 mmHg 96%
    06:00 +10°C° 0 mm 1 m/S 737 mmHg 96%
    07:00 +10°C° 0 mm 1 m/S 738 mmHg 96%
    08:00 +10°C° 0 mm 2 m/S 738 mmHg 92%
    09:00 +13°C° 0 mm 2 m/S 738 mmHg 88%
    10:00 +14°C° 0 mm 2 m/S 738 mmHg 85%
    11:00 +15°C° 0 mm 2 m/S 738 mmHg 79%
    12:00 +16°C° 0 mm 2 m/S 738 mmHg 74%
    13:00 +17°C° 0 mm 2 m/S 738 mmHg 69%
    14:00 +16°C° 0 mm 2 m/S 738 mmHg 71%
    15:00 +16°C° 0 mm 2 m/S 737 mmHg 73%
    16:00 +15°C° 0 mm 2 m/S 737 mmHg 75%
    17:00 +14°C° 0 mm 2 m/S 737 mmHg 79%
    18:00 +13°C° 0 mm 1 m/S 737 mmHg 83%
    19:00 +12°C° 0 mm 1 m/S 737 mmHg 88%
    20:00 +12°C° 0 mm 1 m/S 737 mmHg 89%
    21:00 +11°C° 0 mm 1 m/S 737 mmHg 90%
    22:00 +11°C° 0 mm 1 m/S 737 mmHg 91%
    23:00 +10°C° 0 mm 2 m/S 736 mmHg 91%

    27 Oktober, Freitag

    Zeit Temperatur Niederschläge Wind Luftdruck Luftfeuchtigkeit
    00:00 +10°C° 0 mm 2 m/S 736 mmHg 92%
    01:00 +10°C° 0 mm 2 m/S 736 mmHg 93%
    02:00 +10°C° 0,1 mm 2 m/S 735 mmHg 93%
    03:00 +10°C° 0,1 mm 2 m/S 735 mmHg 94%
    04:00 +9°C° 0,1 mm 2 m/S 735 mmHg 94%
    05:00 +10°C° 0,3 mm 3 m/S 735 mmHg 94%
    06:00 +10°C° 0,3 mm 3 m/S 735 mmHg 93%
    07:00 +10°C° 0,3 mm 3 m/S 735 mmHg 93%
    08:00 +10°C° 0,1 mm 3 m/S 735 mmHg 91%
    09:00 +10°C° 0,1 mm 3 m/S 735 mmHg 89%
    10:00 +11°C° 0,1 mm 3 m/S 736 mmHg 87%
    11:00 +11°C° 0 mm 3 m/S 736 mmHg 84%
    12:00 +11°C° 0 mm 3 m/S 736 mmHg 81%
    13:00 +11°C° 0 mm 4 m/S 736 mmHg 78%
    14:00 +11°C° 0 mm 3 m/S 735 mmHg 77%
    15:00 +11°C° 0 mm 3 m/S 735 mmHg 76%
    16:00 +11°C° 0 mm 3 m/S 735 mmHg 76%
    17:00 +10°C° 0 mm 3 m/S 735 mmHg 77%
    18:00 +10°C° 0 mm 2 m/S 735 mmHg 79%
    19:00 +9°C° 0 mm 2 m/S 735 mmHg 81%
    20:00 +8°C° 0 mm 2 m/S 735 mmHg 83%
    21:00 +8°C° 0 mm 2 m/S 735 mmHg 85%
    22:00 +7°C° 0 mm 2 m/S 735 mmHg 87%
    23:00 +7°C° 0 mm 2 m/S 735 mmHg 89%
    Mehr zeigen